Location: Melizzano
(41.1500°N, 14.5000°E)
Time: 06:21:18
(UTC+00:00)

Cosmos 1709 Rocket - Pass Details

Date: 04 October 2021
Orbit: 947 x 1002 km, 82.9° (Epoch: 25 October)

Event Time Altitude Azimuth Distance (km) Brightness Sun altitude
Rises 01:39:56 0° 5° (N) 3,631 7.4 -37.3°
Reaches altitude 10° 01:43:06 10° 21° (NNE) 2,686 6.8 -36.8°
Maximum altitude 01:47:41 22° 70° (ENE) 1,981 6.2 -36.0°
Drops below altitude 10° 01:52:17 10° 119° (ESE) 2,695 6.6 -35.3°
Sets 01:55:25 0° 134° (SE) 3,646 7.2 -34.8°
